Location: Eastry
(51.2333°N, 1.3000°E)
Time: 15:46:39
(UTC+00:00)

Daily predictions for brighter satellites

Satellite Brightness Start Highest point End
(mag) Time Altitude Azimuth Time Altitude Azimuth Time Altitude Azimuth
SL-16 R/B 4.3 16:22:12 10° NNW 16:24:01 11° NNW 16:25:50 10° N
NOAA 11 4.2 16:19:42 10° SSE 16:25:07 82° ENE 16:30:36 10° NNW
USA 305 3.0 16:23:23 10° WNW 16:27:36 61° N 16:31:49 10° E
CZ-2C R/B 4.3 16:27:16 10° ENE 16:29:12 12° E 16:31:07 10° ESE
Cosmos 1842 Rocket 3.8 16:25:00 10° SSW 16:29:29 81° WNW 16:34:01 10° N
Cosmos 2219 Rocket 4.0 16:27:11 10° N 16:29:50 13° NNE 16:32:28 10° NE
SL-24 R/B - RUBIN 2 3.7 16:25:26 10° NW 16:30:03 81° SW 16:34:22 10° SE
Meteor 1-25 Rocket 4.2 16:24:34 10° N 16:30:10 76° ENE 16:35:48 10° SSE
Nadezhda 4 Rocket 4.2 16:25:04 10° NNW 16:31:26 83° W 16:37:46 10° S
Cosmos 1500 3.6 16:30:06 10° N 16:33:39 39° ENE 16:37:10 10° SE
H-2A R/B 4.3 16:30:17 10° SSW 16:33:41 37° W 16:37:09 10° NNW
Cosmos 1606 3.7 16:30:18 10° SSW 16:33:56 46° WNW 16:37:39 10° N
CZ-4B R/B 2.8 16:30:10 10° SSE 16:34:01 60° ENE 16:37:42 10° N
Cosmos 1464 Rocket 4.3 16:27:55 10° SSW 16:34:18 77° WNW 16:40:42 10° N
Cosmos 44 Rocket 3.5 16:29:49 10° NW 16:34:41 51° NE 16:39:22 10° ESE
COSMOS 2406 3.3 16:35:46 10° SSW 16:41:27 66° ESE 16:47:09 10° NE
Cosmos 468 Rocket 4.0 16:37:31 10° SSW 16:42:42 87° WNW 16:47:59 10° NNE
Meteor 1-31 Rocket 4.5 16:42:22 10° SSW 16:45:55 37° W 16:49:32 10° NNW
Cosmos 1428 Rocket 4.4 16:40:33 10° N 16:46:42 72° ENE 16:52:52 10° SSE
Cosmos 1092 Rocket 4.1 16:45:26 10° N 16:51:51 86° E 16:58:10 10° S
CZ-4B R/B 3.8 16:50:17 10° ESE 16:54:59 32° ENE 16:59:39 10° N
Meteor 2-21 4.4 16:49:19 10° N 16:55:26 74° ENE 17:01:28 10° SSE
USA 267 3.8 16:50:26 11° ENE 16:56:23 44° SE 17:02:34 10° SSW
CZ-2D R/B 3.8 16:53:35 10° SE 16:57:03 34° ENE 17:00:32 10° N
ATLAS CENTAUR R/B 2.9 16:48:13 10° SW 16:58:04 74° SSE 17:01:31 15° ENE
Cosmos 1939 Rocket 2.8 16:55:35 10° SSE 16:59:40 75° ENE 17:03:43 10° N
USA 306 2.9 16:55:43 10° WNW 16:59:59 70° NNE 17:03:51 12° E
Cosmos 1633 Rocket 3.4 16:56:23 10° N 17:00:35 43° ENE 17:04:47 10° SSE
COSMO-SKYMED 1 4.1 16:59:10 14° ENE 17:00:49 17° E 17:03:42 10° SE
Cosmos 1151 Rocket 3.6 16:58:18 10° SSE 17:02:17 37° E 17:06:19 10° NNE
Cosmos 1666 2.8 16:58:47 10° N 17:02:24 46° ENE 17:05:59 10° SSE
Cosmos 2360 Rocket 3.1 16:59:24 10° NNW 17:04:10 27° NE 17:08:17 13° E
Cosmos 1782 2.7 17:00:21 10° S 17:04:18 67° E 17:08:16 10° NNE
ISS -1.0 17:02:34 10° W 17:05:13 21° SW 17:07:51 10° SSE
SeaSat 1 3.7 17:03:34 10° NNE 17:08:06 37° NW 17:12:36 10° WSW
SL-08 R/B 3.6 17:03:54 10° N 17:08:36 70° WNW 17:13:12 10° SSW
Cosmos 1763 Rocket 4.1 17:04:07 10° SW 17:09:06 54° WNW 17:14:10 10° NNE
PAYLOAD B 4.3 17:04:20 10° SE 17:09:48 56° ENE 17:15:16 10° N
Cosmos 1818 3.5 17:04:44 10° NW 17:10:16 84° NE 17:15:44 10° SE
YAOGAN 1 4.1 17:11:21 16° NE 17:11:21 16° NE 17:13:33 10° NNE
ATLAS 5 CENTAUR R/B 2.5 17:08:07 10° NW 17:17:16 59° NNE 17:19:38 18° ESE
Cosmos 1536 4.4 17:14:37 10° NNE 17:16:30 18° NE 17:16:30 18° NE
Cosmos 2279 Rocket 4.1 17:12:22 10° SSE 17:18:23 56° E 17:24:26 10° NNE
Cosmos 841 Rocket 3.5 17:14:07 10° SSW 17:19:17 89° WNW 17:24:28 10° NNE
Cosmos 2266 Rocket 4.4 17:13:27 10° N 17:19:31 43° ENE 17:25:35 10° SE
ERBS 3.4 17:16:52 10° WNW 17:19:44 28° N 17:20:46 23° NE
USA 307 2.8 17:16:17 10° WNW 17:20:34 77° NNE 17:23:32 19° ESE
CZ-4C R/B 3.3 17:14:04 10° NW 17:21:07 70° SW 17:29:26 10° SSE
Lacrosse 5 rocket 1.7 17:19:46 10° WNW 17:23:36 61° SW 17:27:39 10° SE
NOSS 3-4 (A) 4.4 17:18:48 10° NW 17:24:45 36° NNE 17:28:52 20° ENE
NOSS 3-4 (C) 4.4 17:18:53 10° NW 17:24:51 36° NNE 17:28:56 20° ENE
SL-08 RB Rocket 4.5 17:22:24 10° SE 17:26:24 30° ENE 17:30:22 10° N
ATLAS 2AS CENTAUR R/B 3.8 17:20:28 10° WNW 17:27:10 32° N 17:31:18 19° NE
Cosmos 2322 Rocket 2.4 17:21:45 10° NNW 17:27:18 48° NE 17:32:48 10° SE
Cosmos 1933 Rocket 4.2 17:23:42 10° N 17:27:39 32° ENE 17:31:32 10° SE
COSMOS 2428 4.1 17:23:44 10° NNW 17:27:45 19° NNE 17:28:43 18° NE
Cosmos 2208 Rocket 4.3 17:23:32 10° S 17:28:46 52° ESE 17:32:51 17° NE
Cosmos 2150 Rocket 3.9 17:24:06 10° NNW 17:29:15 63° ENE 17:34:27 10° SE
Cosmos 1666 Rocket 3.6 17:25:44 10° NNW 17:30:12 84° W 17:34:36 10° S
Cosmos 1980 Rocket 3.4 17:25:03 10° NW 17:30:26 46° WSW 17:35:47 10° S
AQUARIUS 4.4 17:26:33 10° S 17:31:01 72° WSW 17:35:32 10° NNW
USA 234 3.4 17:25:19 10° SE 17:31:53 80° SSW 17:38:27 10° WNW
Cosmos 1328 Rocket 3.7 17:27:59 10° S 17:32:18 52° E 17:36:01 14° NNE
Cosmos 1470 Rocket 3.6 17:29:24 10° N 17:33:48 56° ENE 17:38:12 10° SSE
Cosmos 1544 3.4 17:30:29 10° N 17:33:56 40° ENE 17:37:22 10° SE
Cosmos 1125 Rocket 3.4 17:30:15 10° NNW 17:35:30 65° ENE 17:40:44 10° SE
X-37B 3.0 17:36:48 10° S 17:37:36 11° SSE 17:37:49 11° SSE
Cosmos 1812 2.7 17:34:14 10° S 17:38:05 87° W 17:41:44 12° N
PSLV R/B 3.8 17:35:23 10° S 17:39:05 77° WSW 17:42:53 10° NNW
H-2A R/B 1.9 17:34:47 10° SSE 17:39:54 84° ENE 17:44:55 10° NNW
Cosmos 1634 Rocket 4.3 17:34:32 10° SSW 17:40:51 72° WNW 17:47:12 10° N
Meteor 1-11 Rocket 3.8 17:35:19 10° N 17:40:51 53° ENE 17:46:27 10° SSE
Okean O Rocket 1.7 17:37:21 10° SE 17:41:41 52° ENE 17:46:02 10° N
Meteor 2-8 Rocket 4.4 17:36:14 10° S 17:42:18 63° E 17:48:24 10° NNE
Meteor 1-10 Rocket 4.4 17:36:57 10° SSE 17:42:26 48° E 17:47:11 13° NNE
ATLAS CENTAUR R/B 3.6 17:39:58 10° NW 17:42:47 16° N 17:44:13 14° NNE
USA 308 2.8 17:38:59 10° WNW 17:43:16 90° S 17:45:21 29° ESE
GEOS 3 Rocket 4.2 17:41:55 28° ENE 17:43:55 39° NNE 17:48:42 10° NW
SL-16 R/B 2.1 17:42:17 10° NNW 17:48:00 80° ENE 17:53:42 10° SSE
Cosmos 2237 Rocket 4.0 17:46:07 10° N 17:49:01 14° NNE 17:49:04 14° NNE
SKYMED 2 3.8 17:47:47 33° NE 17:49:17 46° E 17:53:27 10° S
ARGOS 3.1 17:46:26 10° SSE 17:51:48 69° ENE 17:57:10 10° N
Cosmos 2082 Rocket 2.5 17:46:51 10° SW 17:52:30 66° WNW 17:56:57 17° NNE
CZ-4 R/B 3.6 17:58:56 13° N 17:58:56 13° N 17:59:23 10° N
deb Chang Zheng 4 3.4 17:52:55 10° SSE 17:57:14 82° ENE 18:01:34 10° NNW
COSMOS 2455 3.3 17:54:52 10° SW 18:00:49 58° NW 18:04:54 21° NNE
Cosmos 1833 Rocket 4.1 18:01:09 10° WSW 18:06:10 32° NW 18:10:35 13° NNE
Feng Yun 1-1 Rocket 4.3 18:00:54 10° SSE 18:06:43 63° ENE 18:12:28 10° N
USA 305 3.1 18:03:20 10° WNW 18:07:33 66° SSW 18:08:52 41° SE
Cosmos 2333 Rocket 2.7 18:02:26 10° NNW 18:07:49 38° NE 18:08:04 37° NE
Cosmos 1356 Rocket 3.3 18:04:17 10° NNW 18:08:32 85° E 18:12:47 10° SSE
CZ-2C R/B 2.4 18:06:50 20° NNE 18:10:27 74° ESE 18:15:37 10° S
SL-16 R/B 4.3 18:09:13 10° N 18:11:01 11° NNE 18:11:02 11° NNE
Cosmos 2219 Rocket 2.9 18:10:25 10° NNW 18:15:05 34° NE 18:15:05 34° NE
Cosmos 1655 Rocket 4.1 18:09:55 10° NNW 18:16:21 82° W 18:22:42 10° S
Aureole 3 Rocket 3.7 18:14:02 10° S 18:18:43 59° E 18:25:23 10° NNE
Cosmos 1515 Rocket 3.4 18:14:58 10° S 18:19:25 85° E 18:20:27 53° NNE
Cosmos 921 Rocket 3.0 18:17:40 10° SSW 18:21:53 75° WNW 18:22:47 54° N
Spot 2 4.3 18:23:28 26° SSE 18:26:24 72° ENE 18:31:27 10° NNW
Cosmos 371 Rocket 3.6 18:29:58 10° NNW 18:33:50 54° N 18:33:50 54° N
CZ-4B R/B 4.1 18:30:13 10° S 18:35:24 48° W 18:40:33 10° NNW
Cosmos 2333 4.3 18:30:04 10° NNW 18:35:33 57° NE 18:35:33 57° NE
COSMO-SKYMED 1 2.9 18:36:23 47° NNW 18:37:24 63° WNW 18:41:41 10° SSW
USA 306 3.7 18:35:41 10° WNW 18:39:45 45° SW 18:39:52 45° SSW
USA 267 3.2 18:37:47 49° NE 18:39:46 82° NNW 18:46:19 10° WSW
Meteor 1-27 Rocket 3.5 18:39:53 10° S 18:45:24 90° WNW 18:46:30 59° N
YAOGAN 1 4.0 18:48:29 30° NNW 18:48:29 30° NNW 18:50:44 10° NNW
Cosmos 836 Rocket 4.4 18:42:56 10° SSW 18:48:15 87° WNW 18:48:20 86° NNW
Cosmos 2360 Rocket 2.2 18:43:07 10° NNW 18:48:49 79° WSW 18:50:08 54° S
USA 307 4.3 18:56:20 10° WNW 18:59:35 35° WSW 18:59:35 35° WSW
Lacrosse 5 rocket 4.3 19:00:17 10° W 19:02:05 13° SW 19:03:55 10° SSW
Cosmos 2322 Rocket 3.6 19:06:04 10° NW 19:11:14 37° WSW 19:16:24 10° S
COSMOS 2428 3.9 19:07:31 10° NNW 19:10:45 33° NNW 19:10:45 33° NNW
NOSS 3-4 (A) 3.7 19:09:45 10° NW 19:16:19 79° NNE 19:16:19 79° NNE
NOSS 3-4 (C) 3.7 19:09:52 10° NW 19:16:23 78° NNE 19:16:23 78° NNE
Okean O Rocket 4.0 19:14:53 10° SW 19:18:19 22° W 19:21:47 10° NW
ATLAS 2AS CENTAUR R/B 3.3 19:12:33 10° NW 19:18:44 47° N 19:18:44 47° N
Cosmos 1867 4.4 19:15:19 10° SW 19:19:10 47° SW 19:19:10 47° SW
GEOS 3 Rocket 4.3 19:23:02 50° WNW 19:23:02 50° WNW 19:26:59 10° NW
ATLAS CENTAUR R/B 4.2 19:19:38 10° NNW 19:20:20 13° NNW 19:20:20 13° NNW
ATLAS CENTAUR R/B 4.3 19:24:22 10° WNW 19:27:07 22° WNW 19:27:07 22° WNW
Cosmos 2237 Rocket 4.3 19:29:29 10° NNW 19:30:53 17° NNW 19:30:53 17° NNW
Cosmos 2082 Rocket 4.2 19:33:41 10° WNW 19:37:42 19° NNW 19:38:48 18° NNW
Cosmos 2333 Rocket 3.7 19:46:43 10° NW 19:50:07 34° WNW 19:50:07 34° WNW
Cosmos 2219 Rocket 4.0 19:54:18 10° NW 19:56:49 26° NW 19:56:49 26° NW
